Regional Weather Roundup
Issued by NWS Charleston, SC

Current Version | Previous Version | Text Only | Print | Product List | Glossary Off
Versions: 1 2 3 4 5 6 7 8 9 10 11 12 13 14 15 16 17 18 19 20 21 22 23 24 25 26 27 28 29 30 31 32 33 34 35 36 37 38 39 40 41 42 43 44 45 46 47 48 49 50

000
ASUS42 KCHS 211612
RWRCHS

REGIONAL WEATHER ROUNDUP
NATIONAL WEATHER SERVICE CHARLESTON SC
1100 AM EST TUE NOV 21 2017

NOTE: "FAIR" INDICATES FEW OR NO CLOUDS BELOW 12,000 FEET WITH NO
SIGNIFICANT WEATHER AND/OR OBSTRUCTIONS TO VISIBILITY.

NOT ALL STATIONS ARE QUALITY CONTROLLED. USE DATA WITH CAUTION...
ESPECIALLY DEWPOINT OBSERVATIONS.

SCZ027-030-031-034>040-042>050-211700-
...SOUTHEAST SOUTH CAROLINA...

CITY           SKY/WX    TMP DP  RH WIND       PRES   REMARKS
N CHARLESTON   PTSUNNY   67  55  65 NE8       30.15F
WATERFRONT PRK NOT AVBL
JOHNS ISLAND   FAIR      68  57  68 N7        30.15F
PINOPOLIS        N/A     55  52  88 NE7       30.09F
MONCKS CORNER  FAIR      61  50  67 E5        30.17F
SUMMERVILLE    FAIR      64  52  63 NE5       30.16F
BEAUFORT MCAS  CLOUDY    66  56  70 E7        30.13F
BEAUFORT ARPT  FAIR      64  54  68 NE8       30.12F
HILTON HEAD IS MOSUNNY   66  57  72 NE8       30.13F
WALTERBORO     CLOUDY    63  52  67 E7        30.15F
ALLENDALE      CLOUDY    61  52  72 CALM      30.13F

...SOUTHERN MIDLANDS AND PEE DEE...

CITY           SKY/WX    TMP DP  RH WIND       PRES   REMARKS
GEORGETOWN     CLOUDY    61  54  77 NE7       30.19F
KINGSTREE      PTSUNNY   55  46  71 CALM      30.19F
ORANGEBURG     CLOUDY    58  48  69 E5        30.16F
BARNWELL         N/A     61  52  72 CALM      30.15F
AIKEN          PTSUNNY   57  48  72 SE6       30.18F
MANNING        FAIR      55  50  82 MISG      30.18F
COLUMBIA       CLOUDY    55  46  71 SE3       30.16F
SUMTER         CLOUDY    57  45  64 E8        30.15F
FLORENCE       CLOUDY    59  46  62 E5        30.20F
MYRTLE BEACH   PTSUNNY   62  50  64 N6        30.20F
N MYRTLE BEACH CLOUDY    61  48  62 NE7       30.20F

$$

GAZ063-065-086>088-099>101-113>116-118-119-134>141-150-211700-
...SOUTHEAST GEORGIA...

CITY           SKY/WX    TMP DP  RH WIND       PRES   REMARKS
SAVANNAH ARPT  CLOUDY    69  57  65 E6        30.11F
HUNTER AAF     PTSUNNY   70  58  66 NE6       30.08F
FORT STEWART   CLOUDY    65  56  72 NE5       30.08F
STATESBORO     CLOUDY    62  49  62 E5        30.12F
SYLVANIA       CLOUDY    61  54  76 CALM      30.14F
CLAXTON        LGT RAIN  63  55  75 NE3       30.12F

...CSRA...CENTRAL AND FAR SOUTHEAST GEORGIA...

CITY           SKY/WX    TMP DP  RH WIND       PRES   REMARKS
THOMSON        MOSUNNY   63  50  62 S5        30.18F
AUGUSTA-BUSH   MOSUNNY   60  48  64 E3        30.14F
AUGUSTA-DANIEL PTSUNNY   60  48  64 E5        30.15F
SWAINSBORO     FAIR      61  54  77 E8        30.13S
VIDALIA        CLOUDY    63  55  77 E5        30.11F
EASTMAN        FAIR      64  47  54 SE3       30.13F
HAZLEHURST     FAIR      64  49  59 E3        30.10F
ALMA           CLOUDY    66  56  70 VRB3      30.09F
WAYCROSS       CLOUDY    69  56  64 E6        30.08F
JESUP          CLOUDY    68  57  68 CALM      30.10F
BAXLEY         FAIR      64  55  72 CALM      30.09F
BRUNSWICK      PTSUNNY   70  61  73 NE3       30.09F
SAINT SIMONS   CLOUDY    72  63  73 E6        30.08F

$$

SCZ027-028-034-036>038-045-046-048>050-GAZ119-141-211700-
...LAKE AND SUPPLEMENTAL COASTAL OBSERVATIONS...

STATION/POSITION TIME  TEMP    WIND        PRES    WAVE   SWELL
                       AIR SEA DIR/SP/G            HT/PER HT/PER/DIR
                 (UTC) (F)     (DEG/KT/KT) (MB)    (FT/S) (FT/S/D)
WINYAH BAY       1445   58      60/ 11     1023.0
LAKE MURRAY      1520   52     100/  6/  7 1021.3
ACE BASIN NERRS  1445   62     360/  2     1021.0
FORT PULASKI     1548   63 61   60/ 12/ 14 1019.8F
SAPELO ISLAND    1500   66      40/  4     1019.0

$$

ANZ835-935-AMZ111-154-330-350-352-354-370-450-454-472-211700-
...C-MAN AND BUOY OBSERVATIONS...

STATION/POSITION TIME  TEMP    WIND        PRES    WAVE   SWELL
                       AIR SEA DIR/SP/G            HT/PER HT/PER/DIR
                 (UTC) (F)     (DEG/KT/KT) (MB)    (FT/S) (FT/S/D)
BUOY 41004       1550   72 74  130/ 14/ 17 1020.6F   4/ 5   2/ 90/ 8
BUOY 41008       1550   71 68  120/ 10/ 12 1018.4F   4/ 6   3/110/ 6
FOLLY BEACH CMAN 1500   60      20/  9/ 11 1022.1F
CAPERS NEARSHORE 1508   59 62   50/ 14/ 19 1021.2F
FRIPP NEARSHORE  1508   62 62   70/ 12/ 19 1020.5R


STATION/POSITION TIME  TEMP    WIND        PRES    WAVE   SWELL
                       AIR SEA DIR/SP/G            HT/PER HT/PER/DIR
                 (UTC) (F)     (DEG/KT/KT) (MB)    (FT/S) (FT/S/D)
5E ST. MARYS GA  1530      68                N/A     4/ 6
FRYING PAN BUOY  1550   71 71  140/ 14/ 17 1021.9F   3/ 9   2/ 80/ 9
BUOY 41025       1550   66 77  270/  6/ 10 1024.4F   2/ 8   2/ 70/ 8
CAPE LOOKOUT NC  1500           40/ 10/ 12 1024.4F
BUOY 41002       1550   72 76  110/ 17/ 19 1022.3F   5/ 5   2/ 30/ 9
BUOY 41010       NOT AVBL
ST AUGUSTINE FL  1600   72 68  130/  8/  9 1017.6F


$$



USA.gov is the U.S. government's official web portal to all federal, state and local government web resources and services.